Location: Balaclava NSW 2575, Australia
(34.4510°S, 150.4953°E)
Time: 20:22:54
(UTC+10:00)

Hubble Space Telescope - Pass Details

Date: 21 May 2021
Orbit: 535 x 539 km, 28.5° (Epoch: 17 June)

Event Time Altitude Azimuth Distance (km) Brightness Sun altitude
Rises 19:01:02 0° 280° (W) 2,690 5.8 -24.6°
Reaches altitude 10° 19:03:26 10° 289° (WNW) 1,798 4.4 -25.1°
Enters shadow 19:06:49 33° 342° (NNW) 929 2.1 -25.8°
